Flag for Netherlands Weather past 2 weeks in Wageningen, Netherlands

Now
34 °F

Snow. Mostly cloudy.


Feels Like: 22 °F
Forecast: 20 / 30 °F
Wind: 21 mph from Southeast

Location: Deelen

Current Time: Dec 27, 2014 at 7:45:39 AM

Latest Report: Dec 27, 2014 at 6:55 AM


Visibility: 0 mi

Pressure: 29.53 "Hg

Humidity: 93%

Dew point: 32 °F

Location of WageningenLocation

Historic Weather in Wageningen — Graph

°F

Wageningen temperature yesterday

Maximum temperature yesterday: 39 °F (at 12:25 PM)
Minimum temperature yesterday: 27 °F (at 7:55 AM)
Average temperature yesterday: 34 °F

Past Weeks' High & Low Weather Summary

 TemperatureHumidityPressure
High54 °F (Dec 18, 1:55 PM)100% (Dec 12, 7:55 AM)30.39 "Hg (Dec 12, 7:55 AM)
Low27 °F (Dec 26, 7:55 AM)71% (Dec 19, 3:25 PM)29.30 "Hg (Dec 12, 11:55 AM)
Average43 °F91%29.93 "Hg
* Reported Dec 12 6:25 AM — Dec 27 6:25 AM, Wageningen, Weather by CustomWeather, © 2014

Note: Actual official high and low records may vary slightly from our data, if they occured in-between our weather recording intervals... More about our weather records

Advertising

Wageningen weather history for previous 24 hours

 ConditionsComfort  
Time TempWeatherWind HumidityBarometerVisibility
6:25 AM
Dec 27
34 °FSnow showers. Mostly cloudy.21 mph93%29.56 "Hg1 mi
5:55 AM36 °FRain showers. Partly cloudy.20 mph87%29.59 "Hg2 mi
5:25 AM36 °FSprinkles. Passing clouds.20 mph87%29.62 "Hg4 mi
4:25 AM37 °FPassing clouds.20 mph81%29.68 "HgN/A
3:55 AM37 °FPartly cloudy.18 mph81%29.74 "HgN/A
3:25 AM37 °FPassing clouds.16 mph81%29.77 "HgN/A
2:55 AM36 °FPassing clouds.16 mph87%29.80 "HgN/A
2:25 AM36 °FPartly cloudy.13 mph87%29.83 "HgN/A
1:55 AM36 °FPartly cloudy.12 mph87%29.86 "HgN/A
1:25 AM36 °FPassing clouds.13 mph87%29.92 "HgN/A
12:55 AM36 °FFog.14 mph93%29.95 "Hg6 mi
12:25 AM36 °FFog.13 mph93%29.98 "Hg4 mi
11:55 PM
Dec 26
36 °FFog.10 mph93%30.01 "Hg3 mi
11:25 PM36 °FFog.9 mph100%30.04 "Hg3 mi
10:55 PM36 °FFog.9 mph100%30.07 "Hg3 mi
9:55 PM36 °FFog.8 mph93%30.09 "Hg2 mi
9:25 PM37 °FFog.9 mph93%30.12 "Hg3 mi
8:55 PM37 °FFog.7 mph93%30.15 "Hg4 mi
8:25 PM37 °FFog.7 mph93%30.18 "Hg4 mi
7:55 PM37 °FFog.8 mph93%30.18 "Hg3 mi
7:25 PM37 °FFog.8 mph93%30.21 "Hg3 mi
6:55 PM37 °FFog.8 mph93%30.24 "Hg2 mi
6:25 PM34 °FFog.6 mph100%30.24 "Hg2 mi
5:55 PM34 °FFog.3 mph93%30.24 "Hg2 mi
5:25 PM36 °FFog.2 mph93%30.27 "Hg3 mi
4:55 PM36 °FFog.2 mph93%30.27 "Hg1 mi
4:25 PM36 °FFog.2 mph93%30.30 "Hg4 mi
3:55 PM37 °FPartly sunny.2 mph87%30.30 "HgN/A
3:25 PM37 °FPartly sunny.3 mph93%30.30 "HgN/A
2:55 PM37 °FChilly.6 mph93%30.30 "HgN/A
2:25 PM39 °FOvercast.5 mph87%30.33 "HgN/A
1:55 PM39 °FOvercast.3 mph87%30.33 "HgN/A
1:25 PM39 °FPartly sunny.2 mph87%30.33 "HgN/A
12:55 PM39 °FPartly sunny.2 mph87%30.36 "HgN/A
12:25 PM39 °FPassing clouds.3 mph87%30.36 "HgN/A
11:55 AM37 °FPassing clouds.2 mph87%30.36 "HgN/A
11:25 AM36 °FFog.No wind93%30.39 "Hg4 mi
10:55 AM34 °FFog.No wind100%30.39 "Hg3 mi
10:25 AM32 °FIce fog.No wind100%30.39 "Hg3 mi
9:55 AM28 °FIce fog.1 mph100%30.39 "Hg3 mi
9:25 AM28 °FIce fog.2 mph93%30.36 "Hg1 mi
8:55 AM27 °FIce fog.2 mph93%30.36 "Hg2 mi
8:25 AM28 °FIce fog.2 mph93%30.36 "Hg2 mi
7:55 AM27 °FIce fog.2 mph100%30.36 "Hg2 mi
7:25 AM28 °FIce fog.2 mph100%30.36 "Hg3 mi
Weather by CustomWeather, © 2014

See weather overviewHow to use our weather pages